Regional Weather Roundup
Issued by NWS

Home | Current Version | Previous Version | Graphics & Text | Print | Product List | Glossary On
Versions: 1 2 3 4 5 6 7 8 9 10 11 12 13 14 15 16 17 18 19 20 21 22 23 24 25 26 27 28 29 30 31 32 33 34 35 36 37 38 39 40 41 42 43 44 45 46 47 48 49 50
000
ASUS43 KFSD 281202
RWRSD

WEATHER ROUNDUP FOR SOUTH DAKOTA
NATIONAL WEATHER SERVICE SIOUX FALLS SD
700 AM CDT FRI AUG 28 2015

NOTE: "FAIR" INDICATES FEW OR NO CLOUDS BELOW 12,000 FEET WITH NO
SIGNIFICANT WEATHER AND/OR OBSTRUCTIONS TO VISIBILITY.


SDZ001>005-009-010-012>017-281300-
NORTHWEST AND NORTH CENTRAL SOUTH DAKOTA

CITY           SKY/WX    TMP DP  RH WIND       PRES   REMARKS
BUFFALO          N/A     58  54  86 S5        29.93R
FAITH            N/A     59  57  93 SE8       29.96S
MOBRIDGE       FOG       66  66 100 CALM      29.92R VSB 1
$$

SDZ012>016-024>037-041>051-057-063-072>074-281300-
SOUTHWEST AND SOUTH CENTRAL SOUTH DAKOTA

CITY           SKY/WX    TMP DP  RH WIND       PRES   REMARKS
RAPID CTY ARPT CLEAR     57  52  83 NW6       30.00R
PIERRE         CLOUDY    67  66  97 E3        29.93R
CUSTER         PTCLDY    56  45  66 NW5       30.15R
ELLSWORTH AFB  CLEAR     59  53  82 W5        30.00R
PHILIP         FOG       60  60 100 W3        29.96R VSB 1/4
PINE RIDGE     CLEAR     47  45  93 CALM      30.02R
WINNER         FOG       67  65  93 NE9       29.93R VSB 1/2
$$

SDZ004>011-016>023-039-040-281300-
NORTHEAST SOUTH DAKOTA

CITY           SKY/WX    TMP DP  RH WIND       PRES   REMARKS
ABERDEEN       MOCLDY    61  60  97 S6        29.94R FOG
WATERTOWN      CLOUDY    65  63  93 E3        29.95S
BROOKINGS      CLOUDY    64  61  88 E6        29.96R
$$

SDZ017-020-022-023-036>040-048>070-281300-
SOUTHEAST SOUTH DAKOTA

CITY           SKY/WX    TMP DP  RH WIND       PRES   REMARKS
SIOUX FALLS    CLOUDY    64  62  93 NE9       29.91R
HURON          CLOUDY    65  64  97 E5        29.92R
CHAMBERLAIN    CLOUDY    65  65 100 E5        29.93R
MITCHELL       CLOUDY    66  64  93 NE6       29.92R
YANKTON        CLOUDY    64  63  94 NE12      29.85R
$$

ABBREVIATIONS USED IN REMARKS
   TC - TEMPERATURE IN CELSIUS
  WCI - WIND CHILL INDEX
   HX - HEAT INDEX
  VSB - VISIBILITY




USA.gov is the U.S. government's official web portal to all federal, state and local government web resources and services.